Time,TemperatureF,DewpointF,PressureIn,WindDirection,WindDirectionDegrees,WindSpeedMPH,WindSpeedGustMPH,Humidity,HourlyPrecipIn,Conditions,Clouds,dailyrainin,SoftwareType,DateUTC
2013-12-16 00:01:00,37.2,28.7,30.14,WSW,248,0.0,2.0,71,0.00,,---,0.09,VWS V14.01,2013-12-16 05:01:00,
2013-12-16 00:02:00,37.1,28.6,30.14,West,270,0.0,1.0,71,0.00,,---,0.00,VWS V14.01,2013-12-16 05:02:00,
2013-12-16 00:03:00,37.1,28.6,30.14,West,279,0.0,1.0,71,0.00,,---,0.00,VWS V14.01,2013-12-16 05:03:00,
2013-12-16 00:08:00,36.9,28.7,30.14,WNW,295,1.0,3.0,72,0.00,,---,0.00,VWS V14.01,2013-12-16 05:08:00,
2013-12-16 00:13:00,36.8,29.0,30.14,SSW,207,2.0,2.0,73,0.00,,---,0.00,VWS V14.01,2013-12-16 05:13:00,
2013-12-16 00:18:00,36.2,29.0,30.14,SW,226,0.0,1.0,75,0.00,,---,0.00,VWS V14.01,2013-12-16 05:18:00,
2013-12-16 00:23:00,35.7,29.2,30.14,WSW,242,0.0,0.0,77,0.00,,---,0.00,VWS V14.01,2013-12-16 05:23:00,
2013-12-16 00:28:00,35.3,29.1,30.15,WSW,246,0.0,1.0,78,0.00,,---,0.00,VWS V14.01,2013-12-16 05:28:00,
2013-12-16 00:33:00,35.1,28.9,30.15,West,267,0.0,1.0,78,0.00,,---,0.00,VWS V14.01,2013-12-16 05:33:00,
2013-12-16 00:38:00,35.1,29.3,30.15,West,267,0.0,0.0,79,0.00,,---,0.00,VWS V14.01,2013-12-16 05:38:00,
2013-12-16 00:43:00,34.8,29.0,30.15,West,266,0.0,0.0,79,0.00,,---,0.00,VWS V14.01,2013-12-16 05:43:00,
2013-12-16 00:48:00,34.5,29.0,30.15,West,267,0.0,0.0,80,0.00,,---,0.00,VWS V14.01,2013-12-16 05:48:00,
2013-12-16 00:54:00,34.3,29.1,30.15,West,267,0.0,0.0,81,0.00,,---,0.00,VWS V14.01,2013-12-16 05:54:00,
2013-12-16 00:59:00,34.3,29.4,30.15,West,267,0.0,1.0,82,0.00,,---,0.00,VWS V14.01,2013-12-16 05:59:00,
2013-12-16 01:04:00,34.2,29.3,30.15,West,277,0.0,1.0,82,0.00,,---,0.00,VWS V14.01,2013-12-16 06:04:00,
2013-12-16 01:09:00,34.1,29.2,30.15,West,267,1.0,1.0,82,0.00,,---,0.00,VWS V14.01,2013-12-16 06:09:00,
2013-12-16 01:14:00,34.0,29.1,30.15,West,279,1.0,2.0,82,0.00,,---,0.00,VWS V14.01,2013-12-16 06:14:00,
2013-12-16 01:19:00,34.0,28.8,30.15,WNW,288,0.0,2.0,81,0.00,,---,0.00,VWS V14.01,2013-12-16 06:19:00,
2013-12-16 01:24:00,34.0,28.8,30.15,WNW,285,1.0,2.0,81,0.00,,---,0.00,VWS V14.01,2013-12-16 06:24:00,
2013-12-16 01:29:00,34.1,28.9,30.15,WNW,288,2.0,2.0,81,0.00,,---,0.00,VWS V14.01,2013-12-16 06:29:00,
2013-12-16 01:34:00,34.3,28.5,30.15,WNW,299,2.0,3.0,79,0.00,,---,0.00,VWS V14.01,2013-12-16 06:34:00,
2013-12-16 01:39:00,34.3,28.5,30.14,West,269,1.0,1.0,79,0.00,,---,0.00,VWS V14.01,2013-12-16 06:39:00,
2013-12-16 01:44:00,34.1,28.6,30.15,West,267,0.0,1.0,80,0.00,,---,0.00,VWS V14.01,2013-12-16 06:44:00,
2013-12-16 01:49:00,33.9,28.7,30.15,West,267,0.0,1.0,81,0.00,,---,0.00,VWS V14.01,2013-12-16 06:49:00,
2013-12-16 01:54:00,33.7,28.8,30.15,West,267,0.0,0.0,82,0.00,,---,0.00,VWS V14.01,2013-12-16 06:54:00,
2013-12-16 01:59:00,33.4,29.1,30.15,West,267,0.0,0.0,84,0.00,,---,0.00,VWS V14.01,2013-12-16 06:59:00,
2013-12-16 02:04:00,33.4,29.4,30.15,WSW,242,0.0,1.0,85,0.00,,---,0.00,VWS V14.01,2013-12-16 07:04:00,
2013-12-16 02:09:00,33.6,29.6,30.15,West,280,1.0,2.0,85,0.00,,---,0.00,VWS V14.01,2013-12-16 07:09:00,
2013-12-16 02:14:00,33.8,29.2,30.15,West,273,0.0,2.0,83,0.00,,---,0.00,VWS V14.01,2013-12-16 07:14:00,
2013-12-16 02:19:00,34.0,29.1,30.15,West,269,0.0,1.0,82,0.00,,---,0.00,VWS V14.01,2013-12-16 07:19:00,
2013-12-16 02:24:00,34.0,29.7,30.15,West,264,0.0,1.0,84,0.00,,---,0.00,VWS V14.01,2013-12-16 07:24:00,
2013-12-16 02:29:00,33.8,29.8,30.15,West,264,0.0,0.0,85,0.00,,---,0.00,VWS V14.01,2013-12-16 07:29:00,
2013-12-16 02:34:00,33.5,29.5,30.15,SW,232,0.0,1.0,85,0.00,,---,0.00,VWS V14.01,2013-12-16 07:34:00,
2013-12-16 02:39:00,33.2,29.5,30.15,SW,233,1.0,1.0,86,0.00,,---,0.00,VWS V14.01,2013-12-16 07:39:00,
2013-12-16 02:44:00,33.3,29.3,30.15,WNW,295,1.0,2.0,85,0.00,,---,0.00,VWS V14.01,2013-12-16 07:44:00,
2013-12-16 02:49:00,33.7,29.4,30.15,West,269,0.0,2.0,84,0.00,,---,0.00,VWS V14.01,2013-12-16 07:49:00,
2013-12-16 02:54:00,33.7,29.7,30.15,SW,229,1.0,3.0,85,0.00,,---,0.00,VWS V14.01,2013-12-16 07:54:00,
2013-12-16 02:59:00,33.6,29.9,30.15,West,264,2.0,3.0,86,0.00,,---,0.00,VWS V14.01,2013-12-16 07:59:00,
2013-12-16 03:04:00,33.5,29.5,30.15,West,259,0.0,2.0,85,0.00,,---,0.00,VWS V14.01,2013-12-16 08:04:00,
2013-12-16 03:09:00,33.2,28.9,30.15,WSW,250,0.0,1.0,84,0.00,,---,0.00,VWS V14.01,2013-12-16 08:09:00,
2013-12-16 03:15:00,33.0,28.7,30.16,WSW,250,0.0,0.0,84,0.00,,---,0.00,VWS V14.01,2013-12-16 08:15:00,
2013-12-16 03:20:00,33.2,28.9,30.16,West,262,1.0,3.0,84,0.00,,---,0.00,VWS V14.01,2013-12-16 08:20:00,
2013-12-16 03:25:00,33.6,29.3,30.16,WSW,248,1.0,3.0,84,0.00,,---,0.00,VWS V14.01,2013-12-16 08:25:00,
2013-12-16 03:30:00,33.7,29.4,30.16,WSW,245,2.0,2.0,84,0.00,,---,0.00,VWS V14.01,2013-12-16 08:30:00,
2013-12-16 03:35:00,33.5,28.9,30.16,SW,228,1.0,2.0,83,0.00,,---,0.00,VWS V14.01,2013-12-16 08:35:00,
2013-12-16 03:40:00,33.3,29.0,30.16,SW,228,1.0,1.0,84,0.00,,---,0.00,VWS V14.01,2013-12-16 08:40:00,
2013-12-16 03:45:00,33.5,29.5,30.16,SW,232,2.0,2.0,85,0.00,,---,0.00,VWS V14.01,2013-12-16 08:45:00,
2013-12-16 03:50:00,33.8,28.6,30.16,SW,219,2.0,2.0,81,0.00,,---,0.00,VWS V14.01,2013-12-16 08:50:00,
2013-12-16 03:55:00,33.6,28.4,30.16,SSW,212,3.0,3.0,81,0.00,,---,0.00,VWS V14.01,2013-12-16 08:55:00,
2013-12-16 04:00:00,33.6,28.1,30.16,SSW,211,4.0,4.0,80,0.00,,---,0.00,VWS V14.01,2013-12-16 09:00:00,
2013-12-16 04:05:00,33.2,28.0,30.16,SW,219,4.0,5.0,81,0.00,,---,0.00,VWS V14.01,2013-12-16 09:05:00,
2013-12-16 04:10:00,32.3,28.0,30.16,SW,236,4.0,4.0,84,0.00,,---,0.00,VWS V14.01,2013-12-16 09:10:00,
2013-12-16 04:15:00,32.2,27.9,30.17,WSW,251,2.0,3.0,84,0.00,,---,0.00,VWS V14.01,2013-12-16 09:15:00,
2013-12-16 04:20:00,32.2,27.9,30.17,WSW,243,1.0,3.0,84,0.00,,---,0.00,VWS V14.01,2013-12-16 09:20:00,
2013-12-16 04:25:00,32.1,27.8,30.17,West,259,2.0,5.0,84,0.00,,---,0.00,VWS V14.01,2013-12-16 09:25:00,
2013-12-16 04:30:00,31.9,27.6,30.17,SW,236,4.0,5.0,84,0.00,,---,0.00,VWS V14.01,2013-12-16 09:30:00,
2013-12-16 04:35:00,31.6,27.6,30.17,SW,229,2.0,3.0,85,0.00,,---,0.00,VWS V14.01,2013-12-16 09:35:00,
2013-12-16 04:40:00,31.4,27.7,30.17,SW,226,1.0,5.0,86,0.00,,---,0.00,VWS V14.01,2013-12-16 09:40:00,
2013-12-16 04:45:00,31.3,27.6,30.17,SW,222,2.0,4.0,86,0.00,,---,0.00,VWS V14.01,2013-12-16 09:45:00,
2013-12-16 04:50:00,31.2,27.5,30.17,WSW,248,3.0,4.0,86,0.00,,---,0.00,VWS V14.01,2013-12-16 09:50:00,
2013-12-16 04:55:00,31.2,27.5,30.17,WSW,242,2.0,4.0,86,0.00,,---,0.00,VWS V14.01,2013-12-16 09:55:00,
2013-12-16 05:00:00,31.3,27.6,30.18,WNW,283,2.0,5.0,86,0.00,,---,0.00,VWS V14.01,2013-12-16 10:00:00,
2013-12-16 05:05:00,31.6,27.9,30.17,WSW,252,1.0,4.0,86,0.00,,---,0.00,VWS V14.01,2013-12-16 10:05:00,
2013-12-16 05:10:00,31.7,27.7,30.17,WSW,238,2.0,4.0,85,0.00,,---,0.00,VWS V14.01,2013-12-16 10:10:00,
2013-12-16 05:15:00,31.7,27.7,30.17,WSW,256,2.0,4.0,85,0.00,,---,0.00,VWS V14.01,2013-12-16 10:15:00,
2013-12-16 05:20:00,31.8,27.8,30.18,WSW,245,2.0,5.0,85,0.00,,---,0.00,VWS V14.01,2013-12-16 10:20:00,
2013-12-16 05:25:00,31.8,27.8,30.18,West,263,3.0,4.0,85,0.00,,---,0.00,VWS V14.01,2013-12-16 10:25:00,
2013-12-16 05:30:00,31.7,27.7,30.17,WSW,245,1.0,4.0,85,0.00,,---,0.00,VWS V14.01,2013-12-16 10:30:00,
2013-12-16 05:35:00,31.4,27.4,30.17,SW,233,4.0,4.0,85,0.00,,---,0.00,VWS V14.01,2013-12-16 10:35:00,
2013-12-16 05:41:00,31.3,27.6,30.18,SW,236,3.0,4.0,86,0.00,,---,0.00,VWS V14.01,2013-12-16 10:41:00,
2013-12-16 05:46:00,31.3,27.6,30.18,WSW,253,3.0,5.0,86,0.00,,---,0.00,VWS V14.01,2013-12-16 10:46:00,
2013-12-16 05:51:00,31.5,27.8,30.18,West,259,2.0,5.0,86,0.00,,---,0.00,VWS V14.01,2013-12-16 10:51:00,
2013-12-16 05:56:00,31.7,27.7,30.18,WSW,243,4.0,5.0,85,0.00,,---,0.00,VWS V14.01,2013-12-16 10:56:00,
2013-12-16 06:01:00,32.0,28.0,30.18,West,274,1.0,6.0,85,0.00,,---,0.00,VWS V14.01,2013-12-16 11:01:00,
2013-12-16 06:06:00,32.1,27.8,30.18,West,269,0.0,4.0,84,0.00,,---,0.00,VWS V14.01,2013-12-16 11:06:00,
2013-12-16 06:11:00,31.9,27.9,30.18,SW,229,0.0,1.0,85,0.00,,---,0.00,VWS V14.01,2013-12-16 11:11:00,
2013-12-16 06:16:00,31.7,27.7,30.18,SW,215,2.0,2.0,85,0.00,,---,0.00,VWS V14.01,2013-12-16 11:16:00,
2013-12-16 06:21:00,31.5,27.5,30.18,SSW,210,1.0,2.0,85,0.00,,---,0.00,VWS V14.01,2013-12-16 11:21:00,
2013-12-16 06:26:00,31.5,27.5,30.18,SW,218,3.0,3.0,85,0.00,,---,0.00,VWS V14.01,2013-12-16 11:26:00,
2013-12-16 06:31:00,31.4,27.4,30.18,SW,226,4.0,4.0,85,0.00,,---,0.00,VWS V14.01,2013-12-16 11:31:00,
2013-12-16 06:36:00,31.4,27.4,30.19,WSW,245,4.0,5.0,85,0.00,,---,0.00,VWS V14.01,2013-12-16 11:36:00,
2013-12-16 06:41:00,31.4,27.4,30.19,WSW,243,5.0,6.0,85,0.00,,---,0.00,VWS V14.01,2013-12-16 11:41:00,
2013-12-16 06:46:00,31.4,27.4,30.19,SW,214,2.0,2.0,85,0.00,,---,0.00,VWS V14.01,2013-12-16 11:46:00,
2013-12-16 06:51:00,31.3,27.3,30.19,WSW,248,2.0,5.0,85,0.00,,---,0.00,VWS V14.01,2013-12-16 11:51:00,
2013-12-16 06:56:00,31.3,27.6,30.19,SSW,211,4.0,6.0,86,0.00,,---,0.00,VWS V14.01,2013-12-16 11:56:00,
2013-12-16 07:01:00,31.6,27.6,30.19,WSW,238,4.0,6.0,85,0.00,,---,0.00,VWS V14.01,2013-12-16 12:01:00,
2013-12-16 07:06:00,31.8,27.8,30.19,SW,228,2.0,4.0,85,0.00,,---,0.00,VWS V14.01,2013-12-16 12:06:00,
2013-12-16 07:11:00,31.7,27.7,30.19,SW,224,2.0,3.0,85,0.00,,---,0.00,VWS V14.01,2013-12-16 12:11:00,
2013-12-16 07:16:00,31.5,27.5,30.20,SW,228,1.0,2.0,85,0.00,,---,0.00,VWS V14.01,2013-12-16 12:16:00,
2013-12-16 07:21:00,31.2,27.5,30.20,SSW,212,1.0,3.0,86,0.00,,---,0.00,VWS V14.01,2013-12-16 12:21:00,
2013-12-16 07:26:00,31.1,27.4,30.20,SW,226,1.0,4.0,86,0.00,,---,0.00,VWS V14.01,2013-12-16 12:26:00,
2013-12-16 07:31:00,31.1,27.4,30.20,SW,231,1.0,2.0,86,0.00,,---,0.00,VWS V14.01,2013-12-16 12:31:00,
2013-12-16 07:36:00,31.2,27.5,30.20,SW,225,2.0,3.0,86,0.00,,---,0.00,VWS V14.01,2013-12-16 12:36:00,
2013-12-16 07:41:00,31.3,27.6,30.20,SW,235,3.0,3.0,86,0.00,,---,0.00,VWS V14.01,2013-12-16 12:41:00,
2013-12-16 07:46:00,31.6,27.9,30.20,WSW,257,2.0,4.0,86,0.00,,---,0.00,VWS V14.01,2013-12-16 12:46:00,
2013-12-16 07:51:00,32.0,28.0,30.21,West,264,2.0,4.0,85,0.00,,---,0.00,VWS V14.01,2013-12-16 12:51:00,
2013-12-16 07:56:00,32.3,28.3,30.21,WNW,294,2.0,2.0,85,0.00,,---,0.00,VWS V14.01,2013-12-16 12:56:00,
2013-12-16 08:01:00,32.5,28.2,30.21,WSW,245,1.0,1.0,84,0.00,,---,0.00,VWS V14.01,2013-12-16 13:01:00,
2013-12-16 08:06:00,32.7,28.4,30.20,WSW,239,0.0,0.0,84,0.00,,---,0.00,VWS V14.01,2013-12-16 13:06:00,
2013-12-16 08:11:00,32.9,28.6,30.20,SW,218,1.0,1.0,84,0.00,,---,0.00,VWS V14.01,2013-12-16 13:11:00,
2013-12-16 08:16:00,32.8,28.5,30.21,WSW,248,1.0,2.0,84,0.00,,---,0.00,VWS V14.01,2013-12-16 13:16:00,
2013-12-16 08:21:00,33.1,28.8,30.21,West,281,0.0,1.0,84,0.00,,---,0.00,VWS V14.01,2013-12-16 13:21:00,
2013-12-16 08:26:00,33.4,28.8,30.22,WSW,250,0.0,0.0,83,0.00,,---,0.00,VWS V14.01,2013-12-16 13:26:00,
2013-12-16 08:31:00,33.6,29.0,30.22,SSW,195,2.0,3.0,83,0.00,,---,0.00,VWS V14.01,2013-12-16 13:31:00,
2013-12-16 08:36:00,33.7,29.1,30.22,SSW,203,2.0,2.0,83,0.00,,---,0.00,VWS V14.01,2013-12-16 13:36:00,
2013-12-16 08:41:00,33.8,29.2,30.22,South,181,3.0,5.0,83,0.00,,---,0.00,VWS V14.01,2013-12-16 13:41:00,
2013-12-16 08:46:00,33.9,29.3,30.22,SW,217,1.0,1.0,83,0.00,,---,0.00,VWS V14.01,2013-12-16 13:46:00,
2013-12-16 08:51:00,34.1,29.5,30.23,South,190,0.0,0.0,83,0.00,,---,0.00,VWS V14.01,2013-12-16 13:51:00,
2013-12-16 08:56:00,34.6,30.0,30.23,South,173,0.0,0.0,83,0.00,,---,0.00,VWS V14.01,2013-12-16 13:56:00,
2013-12-16 09:01:00,35.1,30.2,30.23,South,187,0.0,0.0,82,0.00,,---,0.00,VWS V14.01,2013-12-16 14:01:00,
2013-12-16 09:06:00,35.6,30.7,30.23,South,188,0.0,0.0,82,0.00,,---,0.00,VWS V14.01,2013-12-16 14:06:00,
2013-12-16 09:11:00,35.9,31.0,30.24,SSE,164,0.0,0.0,82,0.00,,---,0.00,VWS V14.01,2013-12-16 14:11:00,
2013-12-16 09:16:00,36.4,31.1,30.24,South,173,2.0,2.0,81,0.00,,---,0.00,VWS V14.01,2013-12-16 14:16:00,
2013-12-16 09:21:00,36.7,31.4,30.24,SSE,147,2.0,2.0,81,0.00,,---,0.00,VWS V14.01,2013-12-16 14:21:00,
2013-12-16 09:26:00,36.9,31.6,30.24,SSE,165,2.0,2.0,81,0.00,,---,0.00,VWS V14.01,2013-12-16 14:26:00,
2013-12-16 09:32:00,37.1,31.8,30.23,SSE,163,0.0,1.0,81,0.00,,---,0.00,VWS V14.01,2013-12-16 14:32:00,
2013-12-16 09:37:00,37.3,32.0,30.23,SE,134,2.0,3.0,81,0.00,,---,0.00,VWS V14.01,2013-12-16 14:37:00,
2013-12-16 09:42:00,37.7,32.7,30.23,South,170,2.0,3.0,82,0.00,,---,0.00,VWS V14.01,2013-12-16 14:42:00,
2013-12-16 09:47:00,38.0,32.7,30.23,SSE,168,2.0,2.0,81,0.00,,---,0.00,VWS V14.01,2013-12-16 14:47:00,
2013-12-16 09:52:00,38.5,33.2,30.23,South,173,3.0,4.0,81,0.00,,---,0.00,VWS V14.01,2013-12-16 14:52:00,
2013-12-16 09:57:00,39.0,33.4,30.24,South,173,4.0,5.0,80,0.00,,---,0.00,VWS V14.01,2013-12-16 14:57:00,
2013-12-16 10:02:00,39.6,33.6,30.24,South,183,2.0,3.0,79,0.00,,---,0.00,VWS V14.01,2013-12-16 15:02:00,
2013-12-16 10:07:00,40.2,33.9,30.24,SSE,166,3.0,3.0,78,0.00,,---,0.00,VWS V14.01,2013-12-16 15:07:00,
2013-12-16 10:12:00,40.8,33.2,30.23,South,186,1.0,6.0,74,0.00,,---,0.00,VWS V14.01,2013-12-16 15:12:00,
2013-12-16 10:17:00,41.3,33.3,30.23,SW,236,5.0,5.0,73,0.00,,---,0.00,VWS V14.01,2013-12-16 15:17:00,
2013-12-16 10:22:00,42.1,34.4,30.23,SW,228,3.0,3.0,74,0.00,,---,0.00,VWS V14.01,2013-12-16 15:22:00,
2013-12-16 10:27:00,42.7,34.0,30.23,SE,142,2.0,2.0,71,0.00,,---,0.00,VWS V14.01,2013-12-16 15:27:00,
2013-12-16 10:32:00,43.3,34.2,30.23,WSW,238,2.0,4.0,70,0.00,,---,0.00,VWS V14.01,2013-12-16 15:32:00,
2013-12-16 10:37:00,43.8,33.6,30.23,West,262,1.0,4.0,67,0.00,,---,0.00,VWS V14.01,2013-12-16 15:37:00,
2013-12-16 10:42:00,44.2,33.6,30.23,SW,224,4.0,5.0,66,0.00,,---,0.00,VWS V14.01,2013-12-16 15:42:00,
2013-12-16 10:47:00,44.2,32.8,30.23,West,263,5.0,8.0,64,0.00,,---,0.00,VWS V14.01,2013-12-16 15:47:00,
2013-12-16 10:52:00,44.5,33.1,30.23,WSW,250,3.0,9.0,64,0.00,,---,0.00,VWS V14.01,2013-12-16 15:52:00,
2013-12-16 10:57:00,44.8,33.4,30.23,WSW,248,2.0,10.0,64,0.00,,---,0.00,VWS V14.01,2013-12-16 15:57:00,
2013-12-16 11:02:00,45.1,33.3,30.22,WSW,242,4.0,11.0,63,0.00,,---,0.00,VWS V14.01,2013-12-16 16:02:00,
2013-12-16 11:07:00,45.4,33.6,30.22,West,266,5.0,9.0,63,0.00,,---,0.00,VWS V14.01,2013-12-16 16:07:00,
2013-12-16 11:12:00,46.0,34.1,30.22,West,270,4.0,7.0,63,0.00,,---,0.00,VWS V14.01,2013-12-16 16:12:00,
2013-12-16 11:17:00,46.6,34.7,30.22,SW,228,7.0,10.0,63,0.00,,---,0.00,VWS V14.01,2013-12-16 16:17:00,
2013-12-16 11:22:00,46.6,33.9,30.21,West,263,5.0,7.0,61,0.00,,---,0.00,VWS V14.01,2013-12-16 16:22:00,
2013-12-16 11:27:00,47.3,35.0,30.21,SW,229,4.0,4.0,62,0.00,,---,0.00,VWS V14.01,2013-12-16 16:27:00,
2013-12-16 11:32:00,47.6,34.0,30.20,WNW,293,5.0,11.0,59,0.00,,---,0.00,VWS V14.01,2013-12-16 16:32:00,
2013-12-16 11:37:00,48.0,34.4,30.20,SW,229,6.0,8.0,59,0.00,,---,0.00,VWS V14.01,2013-12-16 16:37:00,
2013-12-16 11:42:00,48.5,34.8,30.19,SW,221,0.0,8.0,59,0.00,,---,0.00,VWS V14.01,2013-12-16 16:42:00,
2013-12-16 11:48:00,49.2,34.6,30.19,West,271,3.0,6.0,57,0.00,,---,0.00,VWS V14.01,2013-12-16 16:48:00,
2013-12-16 11:53:00,49.4,34.8,30.19,WSW,243,3.0,8.0,57,0.00,,---,0.00,VWS V14.01,2013-12-16 16:53:00,
2013-12-16 11:58:00,49.8,34.8,30.19,SW,228,5.0,8.0,56,0.00,,---,0.00,VWS V14.01,2013-12-16 16:58:00,
2013-12-16 12:03:00,50.1,35.0,30.18,WSW,243,1.0,6.0,56,0.00,,---,0.00,VWS V14.01,2013-12-16 17:03:00,
2013-12-16 12:08:00,50.2,34.2,30.18,SSW,211,8.0,9.0,54,0.00,,---,0.00,VWS V14.01,2013-12-16 17:08:00,
2013-12-16 12:13:00,50.4,33.9,30.17,WSW,243,6.0,8.0,53,0.00,,---,0.00,VWS V14.01,2013-12-16 17:13:00,
2013-12-16 12:18:00,51.1,36.4,30.17,SSW,195,5.0,5.0,57,0.00,,---,0.00,VWS V14.01,2013-12-16 17:18:00,
2013-12-16 12:23:00,51.6,34.6,30.17,WSW,243,1.0,9.0,52,0.00,,---,0.00,VWS V14.01,2013-12-16 17:23:00,
2013-12-16 12:28:00,51.4,33.4,30.17,WSW,254,6.0,8.0,50,0.00,,---,0.00,VWS V14.01,2013-12-16 17:28:00,
2013-12-16 12:33:00,51.3,34.3,30.17,SW,218,6.0,10.0,52,0.00,,---,0.00,VWS V14.01,2013-12-16 17:33:00,
2013-12-16 12:38:00,51.4,33.4,30.17,SW,225,9.0,14.0,50,0.00,,---,0.00,VWS V14.01,2013-12-16 17:38:00,
2013-12-16 12:43:00,51.6,34.1,30.17,West,272,3.0,7.0,51,0.00,,---,0.00,VWS V14.01,2013-12-16 17:43:00,
2013-12-16 12:48:00,52.1,34.5,30.17,SW,229,10.0,10.0,51,0.00,,---,0.00,VWS V14.01,2013-12-16 17:48:00,
2013-12-16 12:53:00,52.2,34.1,30.16,West,259,10.0,11.0,50,0.00,,---,0.00,VWS V14.01,2013-12-16 17:53:00,
2013-12-16 12:58:00,52.2,34.1,30.16,WSW,248,5.0,10.0,50,0.00,,---,0.00,VWS V14.01,2013-12-16 17:58:00,
2013-12-16 13:03:00,52.4,34.3,30.16,West,263,5.0,8.0,50,0.00,,---,0.00,VWS V14.01,2013-12-16 18:03:00,
2013-12-16 13:08:00,52.9,33.2,30.16,SW,233,5.0,10.0,47,0.00,,---,0.00,VWS V14.01,2013-12-16 18:08:00,
2013-12-16 13:13:00,53.4,34.2,30.16,WSW,256,4.0,9.0,48,0.00,,---,0.00,VWS V14.01,2013-12-16 18:13:00,
2013-12-16 13:18:00,53.6,33.9,30.15,South,170,3.0,10.0,47,0.00,,---,0.00,VWS V14.01,2013-12-16 18:18:00,
2013-12-16 13:23:00,53.7,34.0,30.15,West,266,3.0,11.0,47,0.00,,---,0.00,VWS V14.01,2013-12-16 18:23:00,
2013-12-16 13:28:00,53.9,33.1,30.15,SW,214,9.0,14.0,45,0.00,,---,0.00,VWS V14.01,2013-12-16 18:28:00,
2013-12-16 13:33:00,53.9,33.1,30.15,SSE,154,1.0,12.0,45,0.00,,---,0.00,VWS V14.01,2013-12-16 18:33:00,
2013-12-16 13:38:00,54.0,33.7,30.15,SSE,158,2.0,7.0,46,0.00,,---,0.00,VWS V14.01,2013-12-16 18:38:00,
2013-12-16 13:43:00,53.9,33.1,30.15,SW,218,9.0,13.0,45,0.00,,---,0.00,VWS V14.01,2013-12-16 18:43:00,
2013-12-16 13:48:00,53.9,33.1,30.15,SW,217,7.0,10.0,45,0.00,,---,0.00,VWS V14.01,2013-12-16 18:48:00,
2013-12-16 13:53:00,54.2,33.9,30.15,West,281,3.0,8.0,46,0.00,,---,0.00,VWS V14.01,2013-12-16 18:53:00,
2013-12-16 13:58:00,54.4,34.1,30.15,SSW,205,4.0,7.0,46,0.00,,---,0.00,VWS V14.01,2013-12-16 18:58:00,
2013-12-16 14:03:00,54.6,33.1,30.14,SSW,207,8.0,11.0,44,0.00,,---,0.00,VWS V14.01,2013-12-16 19:03:00,
2013-12-16 14:08:00,54.7,33.8,30.14,SSW,211,3.0,8.0,45,0.00,,---,0.00,VWS V14.01,2013-12-16 19:08:00,
2013-12-16 14:13:00,54.7,33.2,30.14,WSW,245,7.0,12.0,44,0.00,,---,0.00,VWS V14.01,2013-12-16 19:13:00,
2013-12-16 14:18:00,54.9,33.4,30.15,SSW,202,5.0,13.0,44,0.00,,---,0.00,VWS V14.01,2013-12-16 19:18:00,
2013-12-16 14:23:00,54.7,33.2,30.15,SW,229,9.0,11.0,44,0.00,,---,0.00,VWS V14.01,2013-12-16 19:23:00,
2013-12-16 14:28:00,55.0,33.5,30.14,SW,224,5.0,7.0,44,0.00,,---,0.00,VWS V14.01,2013-12-16 19:28:00,
2013-12-16 14:33:00,55.0,34.1,30.14,SW,233,10.0,11.0,45,0.00,,---,0.00,VWS V14.01,2013-12-16 19:33:00,
2013-12-16 14:38:00,55.0,34.6,30.14,SSE,147,2.0,11.0,46,0.00,,---,0.00,VWS V14.01,2013-12-16 19:38:00,
2013-12-16 14:44:00,55.3,34.3,30.14,SSE,162,6.0,10.0,45,0.00,,---,0.00,VWS V14.01,2013-12-16 19:44:00,
2013-12-16 14:49:00,55.4,33.9,30.14,SW,226,5.0,11.0,44,0.00,,---,0.00,VWS V14.01,2013-12-16 19:49:00,
2013-12-16 14:54:00,55.5,34.5,30.14,SSW,207,9.0,11.0,45,0.00,,---,0.00,VWS V14.01,2013-12-16 19:54:00,
2013-12-16 14:59:00,55.5,34.5,30.15,SW,236,3.0,11.0,45,0.00,,---,0.00,VWS V14.01,2013-12-16 19:59:00,
2013-12-16 15:04:00,55.7,34.1,30.14,SSW,200,6.0,12.0,44,0.00,,---,0.00,VWS V14.01,2013-12-16 20:04:00,
2013-12-16 15:09:00,55.7,34.7,30.14,WSW,242,4.0,10.0,45,0.00,,---,0.00,VWS V14.01,2013-12-16 20:09:00,
2013-12-16 15:14:00,55.6,34.0,30.14,SSW,194,6.0,9.0,44,0.00,,---,0.00,VWS V14.01,2013-12-16 20:14:00,
2013-12-16 15:19:00,55.8,34.2,30.15,SSW,212,3.0,7.0,44,0.00,,---,0.00,VWS V14.01,2013-12-16 20:19:00,
2013-12-16 15:24:00,56.0,34.4,30.15,SSW,208,4.0,10.0,44,0.00,,---,0.00,VWS V14.01,2013-12-16 20:24:00,
2013-12-16 15:29:00,56.3,35.2,30.15,West,262,5.0,7.0,45,0.00,,---,0.00,VWS V14.01,2013-12-16 20:29:00,
2013-12-16 15:34:00,56.2,35.2,30.15,SSW,196,5.0,6.0,45,0.00,,---,0.00,VWS V14.01,2013-12-16 20:34:00,
2013-12-16 15:39:00,56.1,35.1,30.15,SW,224,2.0,9.0,45,0.00,,---,0.00,VWS V14.01,2013-12-16 20:39:00,
2013-12-16 15:44:00,55.8,35.3,30.15,South,186,5.0,8.0,46,0.00,,---,0.00,VWS V14.01,2013-12-16 20:44:00,
2013-12-16 15:49:00,55.7,34.7,30.15,SW,228,7.0,9.0,45,0.00,,---,0.00,VWS V14.01,2013-12-16 20:49:00,
2013-12-16 15:54:00,55.7,34.7,30.15,SSW,212,9.0,11.0,45,0.00,,---,0.00,VWS V14.01,2013-12-16 20:54:00,
2013-12-16 15:59:00,55.7,34.7,30.16,West,260,2.0,7.0,45,0.00,,---,0.00,VWS V14.01,2013-12-16 20:59:00,
2013-12-16 16:04:00,55.6,34.6,30.16,WSW,256,8.0,12.0,45,0.00,,---,0.00,VWS V14.01,2013-12-16 21:04:00,
2013-12-16 16:09:00,55.5,35.1,30.16,SW,225,5.0,9.0,46,0.00,,---,0.00,VWS V14.01,2013-12-16 21:09:00,
2013-12-16 16:14:00,55.6,35.2,30.16,West,267,3.0,8.0,46,0.00,,---,0.00,VWS V14.01,2013-12-16 21:14:00,
2013-12-16 16:19:00,55.5,35.1,30.15,WSW,245,6.0,10.0,46,0.00,,---,0.00,VWS V14.01,2013-12-16 21:19:00,
2013-12-16 16:24:00,55.6,35.7,30.15,West,264,4.0,5.0,47,0.00,,---,0.00,VWS V14.01,2013-12-16 21:24:00,
2013-12-16 16:29:00,55.6,35.7,30.16,SW,222,3.0,6.0,47,0.00,,---,0.00,VWS V14.01,2013-12-16 21:29:00,
2013-12-16 16:34:00,55.6,36.2,30.16,SSW,204,1.0,5.0,48,0.00,,---,0.00,VWS V14.01,2013-12-16 21:34:00,
2013-12-16 16:39:00,55.5,36.7,30.16,SW,214,5.0,7.0,49,0.00,,---,0.00,VWS V14.01,2013-12-16 21:39:00,
2013-12-16 16:44:00,55.2,36.9,30.16,SSW,207,3.0,7.0,50,0.00,,---,0.00,VWS V14.01,2013-12-16 21:44:00,
2013-12-16 16:50:00,55.0,36.7,30.16,SW,214,3.0,4.0,50,0.00,,---,0.00,VWS V14.01,2013-12-16 21:50:00,
2013-12-16 16:55:00,54.8,37.0,30.16,SSW,206,1.0,5.0,51,0.00,,---,0.00,VWS V14.01,2013-12-16 21:55:00,
2013-12-16 17:00:00,54.5,37.2,30.16,SSW,210,2.0,5.0,52,0.00,,---,0.00,VWS V14.01,2013-12-16 22:00:00,
2013-12-16 17:05:00,54.3,37.1,30.16,SSW,210,3.0,4.0,52,0.00,,---,0.00,VWS V14.01,2013-12-16 22:05:00,
2013-12-16 17:10:00,53.9,37.2,30.17,SSW,208,2.0,5.0,53,0.00,,---,0.00,VWS V14.01,2013-12-16 22:10:00,
2013-12-16 17:15:00,53.4,37.2,30.17,SW,214,3.0,5.0,54,0.00,,---,0.00,VWS V14.01,2013-12-16 22:15:00,
2013-12-16 17:20:00,52.9,37.2,30.17,SSW,205,3.0,4.0,55,0.00,,---,0.00,VWS V14.01,2013-12-16 22:20:00,
2013-12-16 17:25:00,52.5,37.3,30.17,SSW,198,3.0,4.0,56,0.00,,---,0.00,VWS V14.01,2013-12-16 22:25:00,
2013-12-16 17:30:00,52.2,37.4,30.17,South,188,3.0,3.0,57,0.00,,---,0.00,VWS V14.01,2013-12-16 22:30:00,
2013-12-16 17:35:00,52.1,37.3,30.17,SSW,194,4.0,4.0,57,0.00,,---,0.00,VWS V14.01,2013-12-16 22:35:00,
2013-12-16 17:40:00,51.9,37.6,30.17,South,184,4.0,4.0,58,0.00,,---,0.00,VWS V14.01,2013-12-16 22:40:00,
2013-12-16 17:45:00,51.5,37.7,30.17,South,172,4.0,5.0,59,0.00,,---,0.00,VWS V14.01,2013-12-16 22:45:00,
2013-12-16 17:50:00,51.1,37.7,30.17,South,176,5.0,5.0,60,0.00,,---,0.00,VWS V14.01,2013-12-16 22:50:00,
2013-12-16 17:55:00,50.8,37.4,30.17,South,184,5.0,5.0,60,0.00,,---,0.00,VWS V14.01,2013-12-16 22:55:00,
2013-12-16 18:00:00,50.6,37.2,30.17,SSE,159,4.0,7.0,60,0.00,,---,0.00,VWS V14.01,2013-12-16 23:00:00,
2013-12-16 18:05:00,50.3,37.4,30.17,SSE,159,4.0,6.0,61,0.00,,---,0.00,VWS V14.01,2013-12-16 23:05:00,
2013-12-16 18:10:00,50.1,37.2,30.17,South,181,5.0,6.0,61,0.00,,---,0.00,VWS V14.01,2013-12-16 23:10:00,
2013-12-16 18:15:00,50.0,37.1,30.17,South,186,3.0,6.0,61,0.00,,---,0.00,VWS V14.01,2013-12-16 23:15:00,
2013-12-16 18:20:00,49.9,37.4,30.17,South,188,6.0,6.0,62,0.00,,---,0.00,VWS V14.01,2013-12-16 23:20:00,
2013-12-16 18:25:00,49.7,37.2,30.17,South,191,4.0,6.0,62,0.00,,---,0.00,VWS V14.01,2013-12-16 23:25:00,
2013-12-16 18:30:00,49.4,36.9,30.17,SSE,155,4.0,6.0,62,0.00,,---,0.00,VWS V14.01,2013-12-16 23:30:00,
2013-12-16 18:35:00,49.2,37.2,30.17,South,178,6.0,7.0,63,0.00,,---,0.00,VWS V14.01,2013-12-16 23:35:00,
2013-12-16 18:40:00,49.1,37.1,30.17,South,183,4.0,6.0,63,0.00,,---,0.00,VWS V14.01,2013-12-16 23:40:00,
2013-12-16 18:45:00,48.9,37.3,30.17,SSE,165,5.0,6.0,64,0.00,,---,0.00,VWS V14.01,2013-12-16 23:45:00,
2013-12-16 18:50:00,48.8,37.2,30.17,South,173,5.0,5.0,64,0.00,,---,0.00,VWS V14.01,2013-12-16 23:50:00,
2013-12-16 18:55:00,48.8,37.2,30.17,South,186,4.0,6.0,64,0.00,,---,0.00,VWS V14.01,2013-12-16 23:55:00,
2013-12-16 19:00:00,48.8,37.2,30.17,South,176,5.0,6.0,64,0.00,,---,0.00,VWS V14.01,2013-12-17 00:00:00,
2013-12-16 19:05:00,48.7,37.1,30.17,South,188,4.0,7.0,64,0.00,,---,0.00,VWS V14.01,2013-12-17 00:05:00,
2013-12-16 19:10:00,48.6,37.0,30.17,South,188,5.0,6.0,64,0.00,,---,0.00,VWS V14.01,2013-12-17 00:10:00,
2013-12-16 19:15:00,48.5,36.9,30.18,South,186,4.0,5.0,64,0.00,,---,0.00,VWS V14.01,2013-12-17 00:15:00,
2013-12-16 19:21:00,48.4,36.8,30.18,South,183,4.0,5.0,64,0.00,,---,0.00,VWS V14.01,2013-12-17 00:21:00,
2013-12-16 19:26:00,48.1,36.9,30.18,South,188,4.0,6.0,65,0.00,,---,0.00,VWS V14.01,2013-12-17 00:26:00,
2013-12-16 19:31:00,47.6,36.8,30.18,SSW,204,3.0,6.0,66,0.00,,---,0.00,VWS V14.01,2013-12-17 00:31:00,
2013-12-16 19:36:00,47.3,36.9,30.18,SSW,203,5.0,6.0,67,0.00,,---,0.00,VWS V14.01,2013-12-17 00:36:00,
2013-12-16 19:41:00,46.9,36.9,30.18,SSW,205,4.0,5.0,68,0.00,,---,0.00,VWS V14.01,2013-12-17 00:41:00,
2013-12-16 19:46:00,46.9,36.9,30.19,SSW,203,5.0,6.0,68,0.00,,---,0.00,VWS V14.01,2013-12-17 00:46:00,
2013-12-16 19:51:00,46.7,37.1,30.19,SW,218,4.0,6.0,69,0.00,,---,0.00,VWS V14.01,2013-12-17 00:51:00,
2013-12-16 19:56:00,46.7,37.1,30.18,South,186,3.0,6.0,69,0.00,,---,0.00,VWS V14.01,2013-12-17 00:56:00,
2013-12-16 20:01:00,46.5,36.9,30.18,SSW,211,4.0,6.0,69,0.00,,---,0.00,VWS V14.01,2013-12-17 01:01:00,
2013-12-16 20:06:00,46.5,36.9,30.18,SSW,211,6.0,6.0,69,0.00,,---,0.00,VWS V14.01,2013-12-17 01:06:00,
2013-12-16 20:11:00,46.5,36.9,30.18,SSW,204,3.0,6.0,69,0.00,,---,0.00,VWS V14.01,2013-12-17 01:11:00,
2013-12-16 20:16:00,46.4,36.8,30.18,SSW,210,3.0,6.0,69,0.00,,---,0.00,VWS V14.01,2013-12-17 01:16:00,
2013-12-16 20:21:00,46.4,36.8,30.18,SW,221,4.0,6.0,69,0.00,,---,0.00,VWS V14.01,2013-12-17 01:21:00,
2013-12-16 20:26:00,46.4,36.8,30.19,SSW,206,5.0,6.0,69,0.00,,---,0.00,VWS V14.01,2013-12-17 01:26:00,
2013-12-16 20:31:00,46.2,37.0,30.19,SSW,210,4.0,7.0,70,0.00,,---,0.00,VWS V14.01,2013-12-17 01:31:00,
2013-12-16 20:36:00,46.2,37.0,30.18,SW,223,4.0,6.0,70,0.00,,---,0.00,VWS V14.01,2013-12-17 01:36:00,
2013-12-16 20:41:00,46.1,36.9,30.19,SW,217,5.0,7.0,70,0.00,,---,0.00,VWS V14.01,2013-12-17 01:41:00,
2013-12-16 20:46:00,46.1,36.9,30.18,SSW,208,6.0,8.0,70,0.00,,---,0.00,VWS V14.01,2013-12-17 01:46:00,
2013-12-16 20:51:00,45.9,36.7,30.18,WSW,239,7.0,7.0,70,0.00,,---,0.00,VWS V14.01,2013-12-17 01:51:00,
2013-12-16 20:56:00,45.8,36.6,30.18,SW,214,5.0,8.0,70,0.00,,---,0.00,VWS V14.01,2013-12-17 01:56:00,
2013-12-16 21:01:00,45.7,36.5,30.18,SSW,206,4.0,8.0,70,0.00,,---,0.00,VWS V14.01,2013-12-17 02:01:00,
2013-12-16 21:06:00,45.6,36.8,30.18,SW,214,5.0,7.0,71,0.00,,---,0.00,VWS V14.01,2013-12-17 02:06:00,
2013-12-16 21:11:00,45.4,36.6,30.18,SSW,207,7.0,7.0,71,0.00,,---,0.00,VWS V14.01,2013-12-17 02:11:00,
2013-12-16 21:16:00,45.3,36.5,30.18,SW,228,5.0,8.0,71,0.00,,---,0.00,VWS V14.01,2013-12-17 02:16:00,
2013-12-16 21:21:00,45.2,36.4,30.18,SSW,197,4.0,8.0,71,0.00,,---,0.00,VWS V14.01,2013-12-17 02:21:00,
2013-12-16 21:26:00,45.2,36.4,30.18,SSW,198,5.0,8.0,71,0.00,,---,0.00,VWS V14.01,2013-12-17 02:26:00,
2013-12-16 21:31:00,45.1,36.3,30.17,SW,222,6.0,8.0,71,0.00,,---,0.00,VWS V14.01,2013-12-17 02:31:00,
2013-12-16 21:36:00,45.0,36.2,30.17,SSW,193,8.0,8.0,71,0.00,,---,0.00,VWS V14.01,2013-12-17 02:36:00,
2013-12-16 21:41:00,44.9,36.1,30.17,South,186,5.0,8.0,71,0.00,,---,0.00,VWS V14.01,2013-12-17 02:41:00,
2013-12-16 21:46:00,44.8,36.0,30.17,South,181,6.0,7.0,71,0.00,,---,0.00,VWS V14.01,2013-12-17 02:46:00,
2013-12-16 21:51:00,44.7,36.2,30.17,SW,214,4.0,7.0,72,0.00,,---,0.00,VWS V14.01,2013-12-17 02:51:00,
2013-12-16 21:56:00,44.4,36.0,30.17,SSW,205,5.0,7.0,72,0.00,,---,0.00,VWS V14.01,2013-12-17 02:56:00,
2013-12-16 22:01:00,44.3,35.9,30.17,South,190,4.0,8.0,72,0.00,,---,0.00,VWS V14.01,2013-12-17 03:01:00,
2013-12-16 22:06:00,44.0,35.6,30.17,SW,232,4.0,7.0,72,0.00,,---,0.00,VWS V14.01,2013-12-17 03:06:00,
2013-12-16 22:11:00,43.8,35.7,30.17,SSW,200,5.0,6.0,73,0.00,,---,0.00,VWS V14.01,2013-12-17 03:11:00,
2013-12-16 22:16:00,43.5,35.4,30.17,SSW,198,3.0,6.0,73,0.00,,---,0.00,VWS V14.01,2013-12-17 03:16:00,
2013-12-16 22:21:00,43.3,35.6,30.18,SW,217,5.0,6.0,74,0.00,,---,0.00,VWS V14.01,2013-12-17 03:21:00,
2013-12-16 22:26:00,43.1,35.4,30.18,SSW,200,2.0,5.0,74,0.00,,---,0.00,VWS V14.01,2013-12-17 03:26:00,
2013-12-16 22:31:00,43.1,35.0,30.18,SW,221,3.0,5.0,73,0.00,,---,0.00,VWS V14.01,2013-12-17 03:31:00,
2013-12-16 22:36:00,43.1,35.0,30.18,SW,218,2.0,5.0,73,0.00,,---,0.00,VWS V14.01,2013-12-17 03:36:00,
2013-12-16 22:41:00,43.1,34.7,30.18,SW,221,3.0,5.0,72,0.00,,---,0.00,VWS V14.01,2013-12-17 03:41:00,
2013-12-16 22:46:00,43.2,34.5,30.18,SW,218,4.0,6.0,71,0.00,,---,0.00,VWS V14.01,2013-12-17 03:46:00,
2013-12-16 22:51:00,43.4,34.3,30.18,SW,225,4.0,5.0,70,0.00,,---,0.00,VWS V14.01,2013-12-17 03:51:00,
2013-12-16 22:56:00,43.4,34.3,30.19,SW,218,3.0,8.0,70,0.00,,---,0.00,VWS V14.01,2013-12-17 03:56:00,
2013-12-16 23:01:00,43.4,34.3,30.19,SW,217,4.0,6.0,70,0.00,,---,0.00,VWS V14.01,2013-12-17 04:01:00,
2013-12-16 23:06:00,43.3,34.5,30.18,SSW,201,3.0,5.0,71,0.00,,---,0.00,VWS V14.01,2013-12-17 04:06:00,
2013-12-16 23:11:00,43.1,34.3,30.18,South,176,2.0,4.0,71,0.00,,---,0.00,VWS V14.01,2013-12-17 04:11:00,
2013-12-16 23:16:00,42.8,34.1,30.18,South,180,4.0,4.0,71,0.00,,---,0.00,VWS V14.01,2013-12-17 04:16:00,
2013-12-16 23:21:00,42.6,34.2,30.17,South,187,4.0,4.0,72,0.00,,---,0.00,VWS V14.01,2013-12-17 04:21:00,
2013-12-16 23:26:00,42.5,34.1,30.17,SSW,204,5.0,6.0,72,0.00,,---,0.00,VWS V14.01,2013-12-17 04:26:00,
2013-12-16 23:31:00,42.7,34.0,30.17,SW,221,5.0,6.0,71,0.00,,---,0.00,VWS V14.01,2013-12-17 04:31:00,
2013-12-16 23:36:00,42.6,33.9,30.18,SW,217,5.0,6.0,71,0.00,,---,0.00,VWS V14.01,2013-12-17 04:36:00,
2013-12-16 23:41:00,42.6,33.5,30.17,SW,233,3.0,3.0,70,0.00,,---,0.00,VWS V14.01,2013-12-17 04:41:00,
2013-12-16 23:46:00,42.6,33.2,30.18,SW,214,3.0,6.0,69,0.00,,---,0.00,VWS V14.01,2013-12-17 04:46:00,
2013-12-16 23:51:00,42.7,33.2,30.17,SW,214,3.0,8.0,69,0.00,,---,0.00,VWS V14.01,2013-12-17 04:51:00,
2013-12-16 23:56:00,42.6,32.8,30.17,SW,214,4.0,8.0,68,0.00,,---,0.00,VWS V14.01,2013-12-17 04:56:00,